UAL2090 KOKC-KIAH

Flight info

Callsign UAL2090
Flight time 0h 56m
Altitude 35000
Route MUDDE3 OLFRD CVE GUSHR3
Aircraft A320/M-SDE3FGHIRWY/LB1

Departure

Time 2026-04-26 15:27
Airport OKC Will Rogers World Airport (KOKC)

Arrival

Time 2026-04-26 16:24
Airport George Bush Intercontinental Airport (KIAH)
Time Latitude Longitude Altitude Speed Heading
2026-04-26 15:06 35.39562 -97.59859 1297 ft 0 kts 180°
2026-04-26 15:18 35.39565 -97.59859 1297 ft 1 kts 180°
2026-04-26 15:18 35.39582 -97.59859 1297 ft 3 kts 180°
2026-04-26 15:19 35.39601 -97.59859 1297 ft 3 kts 180°
2026-04-26 15:19 35.39621 -97.59858 1297 ft 3 kts 200°
2026-04-26 15:19 35.39632 -97.59850 1297 ft 2 kts 262°
2026-04-26 15:19 35.39633 -97.59837 1297 ft 2 kts 269°
2026-04-26 15:20 35.39633 -97.59819 1297 ft 1 kts 269°
2026-04-26 15:22 35.39632 -97.59873 1297 ft 12 kts 269°
2026-04-26 15:23 35.39630 -97.59983 1297 ft 14 kts 268°
2026-04-26 15:23 35.39594 -97.60106 1293 ft 18 kts 246°
2026-04-26 15:23 35.39552 -97.60233 1291 ft 13 kts 281°
2026-04-26 15:23 35.39611 -97.60321 1290 ft 15 kts 314°
2026-04-26 15:24 35.39702 -97.60397 1288 ft 17 kts 343°
2026-04-26 15:24 35.39823 -97.60402 1289 ft 18 kts
2026-04-26 15:24 35.39947 -97.60402 1291 ft 18 kts 359°
2026-04-26 15:24 35.40069 -97.60404 1293 ft 17 kts 359°
2026-04-26 15:25 35.40189 -97.60405 1295 ft 18 kts
2026-04-26 15:25 35.40286 -97.60404 1297 ft 23 kts 358°
2026-04-26 15:25 35.40486 -97.60404 1297 ft 17 kts
2026-04-26 15:25 35.40578 -97.60466 1298 ft 17 kts 281°
2026-04-26 15:26 35.40528 -97.60573 1297 ft 17 kts 187°
2026-04-26 15:26 35.40384 -97.60573 1295 ft 36 kts 180°
2026-04-26 15:26 35.39912 -97.60572 1290 ft 97 kts 180°
2026-04-26 15:26 35.39067 -97.60570 1296 ft 143 kts 180°
2026-04-26 15:27 35.37993 -97.60542 1651 ft 151 kts 178°
2026-04-26 15:27 35.36961 -97.60486 2314 ft 148 kts 173°
2026-04-26 15:27 35.35925 -97.60406 2852 ft 149 kts 174°
2026-04-26 15:27 35.34844 -97.60334 3196 ft 164 kts 177°
2026-04-26 15:28 35.33644 -97.60263 3498 ft 183 kts 173°
2026-04-26 15:28 35.32310 -97.60058 3773 ft 204 kts 172°
2026-04-26 15:28 35.30797 -97.59821 4016 ft 232 kts 173°
2026-04-26 15:28 35.29119 -97.59571 4491 ft 251 kts 173°
2026-04-26 15:29 35.27366 -97.59332 5305 ft 255 kts 174°
2026-04-26 15:29 35.25579 -97.59106 6148 ft 260 kts 174°
2026-04-26 15:29 35.21886 -97.58653 7670 ft 271 kts 175°
2026-04-26 15:30 35.18084 -97.58176 9069 ft 283 kts 176°
2026-04-26 15:30 35.16108 -97.57917 9725 ft 288 kts 178°
2026-04-26 15:30 35.14075 -97.57651 10153 ft 303 kts 178°
2026-04-26 15:31 35.11901 -97.57370 10330 ft 324 kts 176°
2026-04-26 15:31 35.07284 -97.56771 11391 ft 338 kts 178°
2026-04-26 15:31 35.04925 -97.56458 12052 ft 342 kts 177°
2026-04-26 15:32 35.01773 -97.56034 12930 ft 346 kts 178°
2026-04-26 15:32 34.97760 -97.55482 13980 ft 352 kts 178°
2026-04-26 15:32 34.95316 -97.55131 14579 ft 355 kts 177°
2026-04-26 15:33 34.92874 -97.54484 15174 ft 364 kts 166°
2026-04-26 15:33 34.90506 -97.53300 15749 ft 370 kts 161°
2026-04-26 15:33 34.88134 -97.52034 16323 ft 373 kts 161°
2026-04-26 15:33 34.85744 -97.50759 16895 ft 377 kts 162°
2026-04-26 15:34 34.83322 -97.49469 17486 ft 380 kts 162°
2026-04-26 15:34 34.80886 -97.48178 18063 ft 384 kts 162°
2026-04-26 15:34 34.78425 -97.46879 18576 ft 387 kts 162°
2026-04-26 15:34 34.75940 -97.45570 19071 ft 390 kts 163°
2026-04-26 15:35 34.73432 -97.44254 19587 ft 394 kts 163°
2026-04-26 15:35 34.70904 -97.42924 20112 ft 397 kts 163°
2026-04-26 15:35 34.68359 -97.41580 20621 ft 400 kts 163°
2026-04-26 15:35 34.65798 -97.40225 21134 ft 404 kts 163°
2026-04-26 15:36 34.63244 -97.38877 21620 ft 407 kts 163°
2026-04-26 15:36 34.60638 -97.37506 22120 ft 410 kts 163°
2026-04-26 15:36 34.58009 -97.36122 22610 ft 413 kts 163°
2026-04-26 15:36 34.55357 -97.34728 23101 ft 417 kts 163°
2026-04-26 15:37 34.52683 -97.33324 23572 ft 420 kts 163°
2026-04-26 15:37 34.49989 -97.31912 23944 ft 423 kts 164°
2026-04-26 15:37 34.47278 -97.30494 24326 ft 426 kts 164°
2026-04-26 15:37 34.44550 -97.29065 24710 ft 429 kts 164°
2026-04-26 15:38 34.41803 -97.27626 25088 ft 432 kts 164°
2026-04-26 15:38 34.39032 -97.26177 25476 ft 434 kts 164°
2026-04-26 15:38 34.36252 -97.24721 25862 ft 437 kts 164°
2026-04-26 15:38 34.33453 -97.23254 26187 ft 439 kts 164°
2026-04-26 15:39 34.30675 -97.21796 26433 ft 441 kts 164°
2026-04-26 15:39 34.27850 -97.20315 26689 ft 443 kts 164°
2026-04-26 15:39 34.25015 -97.18830 26883 ft 445 kts 165°
2026-04-26 15:39 34.24053 -97.18328 26962 ft 446 kts 165°
2026-04-26 15:40 34.19198 -97.16414 27363 ft 435 kts 178°
2026-04-26 15:40 34.16218 -97.15808 27620 ft 435 kts 179°
2026-04-26 15:40 34.13222 -97.15204 27884 ft 437 kts 179°
2026-04-26 15:40 34.10219 -97.14600 28142 ft 439 kts 179°
2026-04-26 15:41 34.07197 -97.13990 28408 ft 440 kts 179°
2026-04-26 15:41 34.04165 -97.13379 28667 ft 442 kts 179°
2026-04-26 15:41 34.01157 -97.12772 28908 ft 444 kts 179°
2026-04-26 15:41 33.98105 -97.12155 29124 ft 446 kts 179°
2026-04-26 15:42 33.95039 -97.11532 29365 ft 448 kts 179°
2026-04-26 15:42 33.91962 -97.10905 29613 ft 449 kts 180°
2026-04-26 15:42 33.88876 -97.10282 29854 ft 451 kts 180°
2026-04-26 15:42 33.85772 -97.09659 30057 ft 452 kts 180°
2026-04-26 15:43 33.83668 -97.09237 30172 ft 454 kts 180°
2026-04-26 15:43 33.80554 -97.08612 30361 ft 455 kts 180°
2026-04-26 15:43 33.74347 -97.07361 30893 ft 455 kts 179°
2026-04-26 15:44 33.71178 -97.06725 31079 ft 457 kts 179°
2026-04-26 15:44 33.64943 -97.05473 31547 ft 457 kts 179°
2026-04-26 15:44 33.61807 -97.04840 31793 ft 457 kts 179°
2026-04-26 15:45 33.55528 -97.03575 32297 ft 457 kts 179°
2026-04-26 15:45 33.52394 -97.02946 32545 ft 457 kts 179°
2026-04-26 15:46 33.46128 -97.01690 33031 ft 456 kts 179°
2026-04-26 15:46 33.42995 -97.01071 33263 ft 457 kts 179°
2026-04-26 15:46 33.39858 -97.00452 33511 ft 457 kts 179°
2026-04-26 15:46 33.37782 -97.00042 33676 ft 457 kts 179°
2026-04-26 15:47 33.33581 -96.99213 34121 ft 456 kts 179°
2026-04-26 15:47 33.27349 -96.97985 34692 ft 457 kts 180°
2026-04-26 15:47 33.24171 -96.97352 34843 ft 457 kts 179°
2026-04-26 15:48 33.21041 -96.96724 34874 ft 455 kts 179°
2026-04-26 15:48 33.14847 -96.95488 34870 ft 454 kts 180°
2026-04-26 15:49 33.08617 -96.94266 34866 ft 454 kts 180°
2026-04-26 15:49 33.02387 -96.93035 34905 ft 453 kts 180°
2026-04-26 15:50 32.96161 -96.91800 34887 ft 454 kts 180°
2026-04-26 15:50 32.89927 -96.90537 34878 ft 458 kts 176°
2026-04-26 15:51 32.83776 -96.88080 34884 ft 468 kts 168°
2026-04-26 15:51 32.77672 -96.85379 34889 ft 468 kts 168°
2026-04-26 15:52 32.71557 -96.82689 34895 ft 469 kts 168°
2026-04-26 15:52 32.65433 -96.79992 34873 ft 470 kts 168°
2026-04-26 15:53 32.59300 -96.77284 34878 ft 471 kts 168°
2026-04-26 15:53 32.53162 -96.74579 34892 ft 471 kts 168°
2026-04-26 15:54 32.47009 -96.71886 34901 ft 471 kts 168°
2026-04-26 15:54 32.40850 -96.69197 34883 ft 472 kts 168°
2026-04-26 15:55 32.34683 -96.66496 34885 ft 473 kts 168°
2026-04-26 15:55 32.28509 -96.63800 34868 ft 473 kts 168°
2026-04-26 15:56 32.22325 -96.61105 34866 ft 474 kts 168°
2026-04-26 15:56 32.16176 -96.58425 34847 ft 474 kts 168°
2026-04-26 15:57 32.09986 -96.55740 34919 ft 474 kts 168°
2026-04-26 15:57 32.03795 -96.53054 34937 ft 474 kts 168°
2026-04-26 15:58 31.97600 -96.50358 34947 ft 474 kts 168°
2026-04-26 15:58 31.91403 -96.47675 34927 ft 475 kts 168°
2026-04-26 15:58 31.88298 -96.46335 34741 ft 474 kts 168°
2026-04-26 15:59 31.85198 -96.44997 33633 ft 476 kts 167°
2026-04-26 15:59 31.82092 -96.43657 32737 ft 471 kts 167°
2026-04-26 15:59 31.79071 -96.42341 32305 ft 455 kts 167°
2026-04-26 15:59 31.76146 -96.41065 31821 ft 442 kts 167°
2026-04-26 16:00 31.73298 -96.39828 31353 ft 431 kts 168°
2026-04-26 16:00 31.70517 -96.38627 30911 ft 420 kts 168°
2026-04-26 16:00 31.67800 -96.37463 30473 ft 411 kts 168°
2026-04-26 16:00 31.65132 -96.36324 29946 ft 405 kts 168°
2026-04-26 16:01 31.62490 -96.35198 29200 ft 403 kts 168°
2026-04-26 16:01 31.59885 -96.34084 29058 ft 394 kts 168°
2026-04-26 16:01 31.57313 -96.32982 28661 ft 393 kts 168°
2026-04-26 16:01 31.54754 -96.31883 28280 ft 391 kts 168°
2026-04-26 16:02 31.52205 -96.30787 27889 ft 389 kts 168°
2026-04-26 16:02 31.49701 -96.29713 27508 ft 388 kts 167°
2026-04-26 16:02 31.47174 -96.28633 27109 ft 385 kts 167°
2026-04-26 16:02 31.45471 -96.27906 26836 ft 385 kts 167°
2026-04-26 16:03 31.42144 -96.26484 26312 ft 383 kts 167°
2026-04-26 16:03 31.39638 -96.25410 25901 ft 383 kts 167°
2026-04-26 16:03 31.37135 -96.24339 25486 ft 383 kts 167°
2026-04-26 16:03 31.34631 -96.23271 25063 ft 382 kts 166°
2026-04-26 16:04 31.32130 -96.22204 24638 ft 382 kts 166°
2026-04-26 16:04 31.29625 -96.21136 24209 ft 382 kts 166°
2026-04-26 16:04 31.27158 -96.20085 23769 ft 383 kts 166°
2026-04-26 16:04 31.24653 -96.19019 23315 ft 383 kts 166°
2026-04-26 16:05 31.22149 -96.17956 22818 ft 383 kts 166°
2026-04-26 16:05 31.19647 -96.16893 22378 ft 381 kts 166°
2026-04-26 16:05 31.17156 -96.15835 21937 ft 380 kts 166°
2026-04-26 16:05 31.14673 -96.14780 21479 ft 379 kts 166°
2026-04-26 16:06 31.12197 -96.13726 21038 ft 378 kts 166°
2026-04-26 16:06 31.09730 -96.12676 20582 ft 377 kts 166°
2026-04-26 16:06 31.07262 -96.11625 20154 ft 376 kts 165°
2026-04-26 16:06 31.04807 -96.10577 19713 ft 376 kts 165°
2026-04-26 16:07 31.02349 -96.09531 19252 ft 376 kts 165°
2026-04-26 16:07 30.99891 -96.08490 18819 ft 376 kts 165°
2026-04-26 16:07 30.97431 -96.07454 18378 ft 376 kts 165°
2026-04-26 16:07 30.94963 -96.06415 17915 ft 377 kts 165°
2026-04-26 16:08 30.92497 -96.05374 17462 ft 376 kts 165°
2026-04-26 16:08 30.90867 -96.04684 17171 ft 375 kts 165°
2026-04-26 16:08 30.87632 -96.03317 16590 ft 372 kts 165°
2026-04-26 16:08 30.85204 -96.02280 16153 ft 371 kts 164°
2026-04-26 16:09 30.82789 -96.01239 15714 ft 369 kts 164°
2026-04-26 16:09 30.80384 -96.00219 15247 ft 366 kts 163°
2026-04-26 16:09 30.77991 -95.99228 14822 ft 364 kts 163°
2026-04-26 16:09 30.75610 -95.98232 14393 ft 362 kts 163°
2026-04-26 16:10 30.73249 -95.97242 13975 ft 359 kts 163°
2026-04-26 16:10 30.70899 -95.96255 13546 ft 357 kts 162°
2026-04-26 16:10 30.68571 -95.95273 13089 ft 354 kts 162°
2026-04-26 16:10 30.66264 -95.94301 12630 ft 352 kts 162°
2026-04-26 16:11 30.63972 -95.93335 12162 ft 349 kts 162°
2026-04-26 16:11 30.61695 -95.92378 11722 ft 346 kts 162°
2026-04-26 16:11 30.59464 -95.91442 11274 ft 344 kts 162°
2026-04-26 16:11 30.57222 -95.90501 10848 ft 341 kts 162°
2026-04-26 16:12 30.54996 -95.89568 10423 ft 339 kts 162°
2026-04-26 16:12 30.52791 -95.88642 10007 ft 336 kts 162°
2026-04-26 16:12 30.48379 -95.87055 9169 ft 327 kts 176°
2026-04-26 16:13 30.46157 -95.86816 9042 ft 314 kts 176°
2026-04-26 16:13 30.44021 -95.86577 8913 ft 303 kts 176°
2026-04-26 16:13 30.41961 -95.86338 8767 ft 293 kts 176°
2026-04-26 16:13 30.39940 -95.86104 8480 ft 290 kts 176°
2026-04-26 16:14 30.37941 -95.85875 8173 ft 288 kts 176°
2026-04-26 16:14 30.35950 -95.85650 7833 ft 287 kts 176°
2026-04-26 16:14 30.32003 -95.85211 7185 ft 283 kts 177°
2026-04-26 16:15 30.30047 -95.84993 6851 ft 282 kts 176°
2026-04-26 16:15 30.28073 -95.84772 6324 ft 285 kts 176°
2026-04-26 16:15 30.26148 -95.84554 6107 ft 274 kts 177°
2026-04-26 16:16 30.22428 -95.83730 5852 ft 276 kts 152°
2026-04-26 16:16 30.20982 -95.82262 5847 ft 281 kts 133°
2026-04-26 16:16 30.19740 -95.80509 5841 ft 282 kts 132°
2026-04-26 16:16 30.18506 -95.78741 5848 ft 284 kts 131°
2026-04-26 16:17 30.17254 -95.76943 5420 ft 293 kts 131°
2026-04-26 16:17 30.15966 -95.75095 5031 ft 295 kts 131°
2026-04-26 16:17 30.14715 -95.73294 4813 ft 287 kts 131°
2026-04-26 16:17 30.13483 -95.71523 4642 ft 278 kts 131°
2026-04-26 16:18 30.12286 -95.69809 4464 ft 270 kts 131°
2026-04-26 16:18 30.09951 -95.66483 4129 ft 265 kts 132°
2026-04-26 16:19 30.07632 -95.63184 3842 ft 263 kts 132°
2026-04-26 16:19 30.06478 -95.61545 3746 ft 263 kts 132°
2026-04-26 16:19 30.04558 -95.58817 3470 ft 264 kts 131°
2026-04-26 16:20 30.03016 -95.56624 3248 ft 262 kts 131°
2026-04-26 16:20 30.00957 -95.53185 2918 ft 261 kts 111°
2026-04-26 16:20 30.00685 -95.51188 2635 ft 243 kts 92°
2026-04-26 16:21 30.00694 -95.49329 2341 ft 220 kts 94°
2026-04-26 16:21 30.00701 -95.47640 2071 ft 201 kts 93°
2026-04-26 16:21 30.00703 -95.46063 1838 ft 192 kts 94°
2026-04-26 16:21 30.00706 -95.44579 1575 ft 179 kts 94°
2026-04-26 16:22 30.00708 -95.43211 1383 ft 166 kts 95°
2026-04-26 16:22 30.00710 -95.41914 1156 ft 157 kts 97°
2026-04-26 16:22 30.00716 -95.40674 934 ft 153 kts 95°
2026-04-26 16:22 30.00724 -95.39453 774 ft 153 kts 97°
2026-04-26 16:23 30.00718 -95.38238 614 ft 150 kts 98°
2026-04-26 16:23 30.00711 -95.37053 389 ft 148 kts 97°
2026-04-26 16:23 30.00723 -95.35890 154 ft 139 kts 94°
2026-04-26 16:23 30.00712 -95.34926 106 ft 88 kts 91°
2026-04-26 16:24 30.00714 -95.34471 106 ft 44 kts 90°
2026-04-26 16:24 30.00710 -95.34149 107 ft 38 kts 93°
2026-04-26 16:24 30.00630 -95.33885 107 ft 31 kts 120°
2026-04-26 16:24 30.00554 -95.33652 107 ft 32 kts 89°
2026-04-26 16:25 30.00553 -95.33389 107 ft 33 kts 91°
2026-04-26 16:25 30.00544 -95.33234 107 ft 17 kts 105°
2026-04-26 16:25 30.00484 -95.33096 107 ft 21 kts 117°
2026-04-26 16:25 30.00397 -95.32957 105 ft 22 kts 129°
2026-04-26 16:26 30.00294 -95.32813 107 ft 24 kts 130°
2026-04-26 16:26 30.00219 -95.32710 107 ft 25 kts 130°
2026-04-26 16:26 30.00043 -95.32538 107 ft 26 kts 180°
2026-04-26 16:26 29.99855 -95.32540 107 ft 28 kts 180°
2026-04-26 16:27 29.99657 -95.32538 107 ft 29 kts 179°
2026-04-26 16:27 29.99469 -95.32533 106 ft 25 kts 179°
2026-04-26 16:27 29.99291 -95.32540 106 ft 26 kts 180°
2026-04-26 16:27 29.99176 -95.32576 107 ft 12 kts 262°
2026-04-26 16:28 29.99177 -95.32693 107 ft 17 kts 271°
2026-04-26 16:28 29.99179 -95.32787 107 ft 18 kts 271°
2026-04-26 16:28 29.99181 -95.32938 107 ft 20 kts 270°
2026-04-26 16:28 29.99093 -95.33026 107 ft 20 kts 178°
2026-04-26 16:29 29.98944 -95.33023 107 ft 22 kts 179°
2026-04-26 16:29 29.98783 -95.33024 107 ft 24 kts 181°
2026-04-26 16:29 29.98587 -95.33028 107 ft 30 kts 177°
2026-04-26 16:29 29.98381 -95.33021 107 ft 25 kts 178°
2026-04-26 16:30 29.98301 -95.33141 107 ft 23 kts 268°
2026-04-26 16:30 29.98300 -95.33334 107 ft 25 kts 271°
2026-04-26 16:30 29.98302 -95.33544 107 ft 22 kts 273°
2026-04-26 16:30 29.98381 -95.33663 106 ft 21 kts 343°
2026-04-26 16:31 29.98470 -95.33653 107 ft 9 kts 14°
2026-04-26 16:31 29.98523 -95.33650 107 ft 5 kts 359°
2026-04-26 16:31 29.98531 -95.33650 107 ft 0 kts 359°